TimePST,TemperatureF,Dew PointF,Humidity,Sea Level PressureIn,VisibilityMPH,Wind Direction,Wind SpeedMPH,Gust SpeedMPH,PrecipitationIn,Events,Conditions,WindDirDegrees,DateUTC
12:52 AM,48.9,35.1,59,30.22,10.0,Calm,Calm,-,N/A,,Clear,0,2013-02-25 08:52:00
1:52 AM,51.1,33.1,50,30.21,10.0,East,3.5,-,N/A,,Clear,90,2013-02-25 09:52:00
2:52 AM,48.9,33.1,54,30.19,10.0,NNW,3.5,-,N/A,,Clear,340,2013-02-25 10:52:00
3:52 AM,48.0,25.0,41,30.19,10.0,Calm,Calm,-,N/A,,Clear,0,2013-02-25 11:52:00
4:52 AM,46.0,21.9,39,30.20,10.0,East,5.8,-,N/A,,Clear,80,2013-02-25 12:52:00
5:52 AM,46.9,21.9,37,30.19,10.0,Calm,Calm,-,N/A,,Clear,0,2013-02-25 13:52:00
6:52 AM,46.0,24.1,42,30.20,10.0,Calm,Calm,-,N/A,,Clear,0,2013-02-25 14:52:00
7:52 AM,53.1,25.0,34,30.21,10.0,Calm,Calm,-,N/A,,Partly Cloudy,0,2013-02-25 15:52:00
8:52 AM,55.9,28.0,34,30.20,10.0,SSE,4.6,-,N/A,,Partly Cloudy,160,2013-02-25 16:52:00
9:52 AM,62.1,23.0,22,30.19,10.0,SSW,3.5,-,N/A,,Partly Cloudy,210,2013-02-25 17:52:00
10:52 AM,64.9,17.1,16,30.19,10.0,SSW,4.6,-,N/A,,Partly Cloudy,200,2013-02-25 18:52:00
11:52 AM,66.9,21.0,17,30.17,10.0,South,6.9,-,N/A,,Partly Cloudy,190,2013-02-25 19:52:00
12:52 PM,66.9,21.9,18,30.13,10.0,SSW,6.9,-,N/A,,Partly Cloudy,200,2013-02-25 20:52:00
1:52 PM,69.1,9.0,10,30.12,10.0,West,9.2,-,N/A,,Partly Cloudy,260,2013-02-25 21:52:00
2:52 PM,66.0,34.0,30,30.12,10.0,WNW,12.7,-,N/A,,Partly Cloudy,290,2013-02-25 22:52:00
3:52 PM,64.0,42.1,45,30.11,10.0,WNW,12.7,-,N/A,,Partly Cloudy,300,2013-02-25 23:52:00
4:52 PM,62.1,46.0,56,30.09,10.0,NW,9.2,-,N/A,,Partly Cloudy,320,2013-02-26 00:52:00
5:52 PM,59.0,46.9,64,30.09,10.0,NW,9.2,-,N/A,,Partly Cloudy,320,2013-02-26 01:52:00
6:52 PM,57.9,48.9,72,30.11,10.0,NW,5.8,-,N/A,,Partly Cloudy,320,2013-02-26 02:52:00
7:52 PM,55.9,46.9,72,30.11,10.0,Calm,Calm,-,N/A,,Partly Cloudy,0,2013-02-26 03:52:00
8:52 PM,54.0,46.9,77,30.12,10.0,Calm,Calm,-,N/A,,Partly Cloudy,0,2013-02-26 04:52:00
9:52 PM,54.0,48.0,80,30.12,10.0,Calm,Calm,-,N/A,,Partly Cloudy,0,2013-02-26 05:52:00
10:52 PM,51.1,46.0,83,30.11,10.0,Calm,Calm,-,N/A,,Partly Cloudy,0,2013-02-26 06:52:00
11:52 PM,51.1,42.1,71,30.09,10.0,Calm,Calm,-,N/A,,Clear,0,2013-02-26 07:52:00